Mt Bomar Mars — 9HCM9 — position and weather

sailwx.info

Track history (hours):
 
Tides and Currents Weather Stations Pressure Air Temp Water Temp Dewpoint Dewpoint Depression Visibility Wind Speed Wind Dir Waves Ship Positions

Mt Bomar Mars

Last reported at 2014-Jul-23 04:29 UTC. Time now 2014-Jul-23 05:16 UTC.
Position N 51°57' E 004°11'.

Length 107 m; draft 6.3 m.

Type: Ship. MMSI: 256784000.

Date/timePositionNaut miles runAvg speedWind from/ knotsBaromVisibWave heightAir tempDewpointWater temp
2014-Jul-23 04:29N 51°57' E 004°11'0 0.0
2014-Jul-23 03:32N 51°57' E 004°11'0 0.0
2014-Jul-23 02:32N 51°57' E 004°11'0 0.0
2014-Jul-23 01:32N 51°57' E 004°11'0 0.0
2014-Jul-23 00:32N 51°57' E 004°11'0 0.0
2014-Jul-22 23:32N 51°57' E 004°11'0 0.0
2014-Jul-22 22:32N 51°57' E 004°11'0 0.0
2014-Jul-22 21:32N 51°57' E 004°11'0 0.0
2014-Jul-22 20:29N 51°57' E 004°11'0 0.0
2014-Jul-22 19:29N 51°57' E 004°11'0 0.0
2014-Jul-22 18:32N 51°57' E 004°11'0 0.0
2014-Jul-22 17:26N 51°57' E 004°11'0 0.0
2014-Jul-22 16:32N 51°57' E 004°11'0 0.0
2014-Jul-22 15:29N 51°57' E 004°11'0 0.0
2014-Jul-22 14:32N 51°57' E 004°11'0 0.0
2014-Jul-22 13:20N 51°57' E 004°11'0 0.0
2014-Jul-22 12:32N 51°57' E 004°11'0 0.0
2014-Jul-22 11:29N 51°57' E 004°11'0 0.0
2014-Jul-22 10:32N 51°57' E 004°11'0 0.0
2014-Jul-22 09:29N 51°57' E 004°11'0 0.0
2014-Jul-22 08:32N 51°57' E 004°11'0 0.0
2014-Jul-22 07:29N 51°57' E 004°11'0 0.0
2014-Jul-22 06:32N 51°57' E 004°11'0 0.0
2014-Jul-22 05:32N 51°57' E 004°11'0 0.0
2014-Jul-22 04:29N 51°57' E 004°11'0 0.0
2014-Jul-22 03:32N 51°57' E 004°11'0 0.0
2014-Jul-22 02:32N 51°57' E 004°11'0 0.0
2014-Jul-22 01:32N 51°57' E 004°11'0 0.0
2014-Jul-22 00:32N 51°57' E 004°11'0 0.0
2014-Jul-21 23:32N 51°57' E 004°11'0 0.0
2014-Jul-21 22:33N 51°57' E 004°11'2 1.9
2014-Jul-21 21:34N 51°58' E 004°09'7 6.8
2014-Jul-21 20:34N 51°54' E 004°17'2 7.0
2014-Jul-21 20:18N 51°54' E 004°20'1 1.2
2014-Jul-21 19:33N 51°54' E 004°22'0 0.0
2014-Jul-21 18:33N 51°54' E 004°22'0 0.0
2014-Jul-21 17:33N 51°54' E 004°22'0 0.0
2014-Jul-21 16:33N 51°54' E 004°22'0 0.0
2014-Jul-21 15:21N 51°54' E 004°22'0 0.0
2014-Jul-21 14:15N 51°54' E 004°22'0 0.0
2014-Jul-21 13:30N 51°54' E 004°22'0 0.0
2014-Jul-21 12:21N 51°54' E 004°22'0 0.0
2014-Jul-21 11:21N 51°54' E 004°22'0 0.0
2014-Jul-21 10:27N 51°54' E 004°22'0 0.0
2014-Jul-21 09:33N 51°54' E 004°22'0 0.0
2014-Jul-21 07:33N 51°54' E 004°22'0 0.0
2014-Jul-21 05:27N 51°54' E 004°22'0 0.0
2014-Jul-21 04:33N 51°54' E 004°22'0 0.0
2014-Jul-21 03:33N 51°54' E 004°22'0 0.0
2014-Jul-21 02:27N 51°54' E 004°22'0 0.0
2014-Jul-21 01:27N 51°54' E 004°22'0 0.0
2014-Jul-21 00:21N 51°54' E 004°22'1 1.7
2014-Jul-20 23:33N 51°54' E 004°20'10 9.9
2014-Jul-20 22:33N 51°59' E 004°06'1110.8
2014-Jul-20 21:33N 52°00' E 003°49'9 5.8
2014-Jul-20 20:04N 51°55' E 003°37'0 0.0
2014-Jul-20 13:31N 51°55' E 003°37'0 0.0
2014-Jul-20 08:04N 51°55' E 003°37'0 0.0
2014-Jul-20 07:22N 51°55' E 003°37'0 0.0
2014-Jul-20 06:31N 51°55' E 003°37'0 0.1
2014-Jul-20 05:28N 51°55' E 003°37'0 0.1
2014-Jul-20 04:31N 51°55' E 003°37'0 0.0
2014-Jul-20 03:28N 51°55' E 003°37'0 0.0
2014-Jul-20 02:16N 51°55' E 003°37'0 0.0
2014-Jul-20 01:28N 51°55' E 003°37'0 0.1
2014-Jul-19 23:31N 51°55' E 003°37'0 0.0
2014-Jul-19 22:25N 51°55' E 003°37'0 0.0
2014-Jul-19 20:16N 51°55' E 003°37'0 0.0
2014-Jul-19 18:22N 51°55' E 003°37'0 0.0
2014-Jul-19 17:31N 51°55' E 003°37'0 0.1
2014-Jul-19 16:25N 51°55' E 003°37'0 0.0
2014-Jul-19 15:28N 51°55' E 003°37'0 0.0
2014-Jul-19 12:13N 51°55' E 003°37'0 0.0
2014-Jul-19 10:33N 51°55' E 003°37'12 9.0
2014-Jul-19 09:11N 51°53' E 003°17'911.3
2014-Jul-19 08:26N 51°51' E 003°04'2611.7
2014-Jul-19 06:14N 51°39' E 002°28'912.6
2014-Jul-19 05:33N 51°32' E 002°19'1312.0
2014-Jul-19 04:28N 51°21' E 002°07'1111.6
2014-Jul-19 03:33N 51°12' E 001°59'1212.2
2014-Jul-19 02:33N 51°05' E 001°43'1111.2
2014-Jul-19 01:33N 50°56' E 001°31'10 9.6
2014-Jul-19 00:33N 50°48' E 001°25'9 9.2
2014-Jul-18 23:33N 50°40' E 001°19'9 9.5
2014-Jul-18 22:33N 50°33' E 001°07'9 9.2
2014-Jul-18 21:33N 50°28' E 000°56'9 9.4
2014-Jul-18 20:33N 50°25' E 000°42'10 9.5
2014-Jul-18 19:33N 50°23' E 000°27'12 9.8
2014-Jul-18 18:22N 50°20' E 000°09'810.1
2014-Jul-18 17:33N 50°18' W 000°03'1210.3
2014-Jul-18 16:21N 50°14' W 000°22'1311.2
2014-Jul-18 15:08N 50°11' W 000°42'5714.1
2014-Jul-18 11:06N 49°56' W 002°07'2512.8
2014-Jul-18 09:11N 49°49' W 002°44'811.7
2014-Jul-18 08:29N 49°47' W 002°56'3410.6
2014-Jul-18 05:16N 49°30' W 003°42'  
2014-Jul-15 17:11N 39°60' W 009°57'710.7
2014-Jul-15 16:33N 39°53' W 009°57'6810.8
2014-Jul-15 10:17N 38°46' W 009°57'4210.6
2014-Jul-15 06:19N 38°05' W 009°45'1210.4
2014-Jul-15 05:09N 37°53' W 009°42'610.6
2014-Jul-15 04:33N 37°47' W 009°40'1110.6
2014-Jul-15 03:33N 37°36' W 009°37'1110.5
2014-Jul-15 02:32N 37°26' W 009°34'1010.0
2014-Jul-15 01:33N 37°16' W 009°32'1010.1
2014-Jul-15 00:32N 37°06' W 009°29'1110.6
2014-Jul-14 23:30N 36°56' W 009°26'1010.3
2014-Jul-14 22:33N 36°47' W 009°20'1510.3
2014-Jul-14 21:06N 36°39' W 009°04'610.9
2014-Jul-14 20:33N 36°37' W 008°57'1110.9
2014-Jul-14 19:33N 36°34' W 008°44'1110.8
2014-Jul-14 18:33N 36°31' W 008°31'1110.9
2014-Jul-14 17:33N 36°28' W 008°18'1111.0
2014-Jul-14 16:33N 36°25' W 008°05'1111.0
2014-Jul-14 15:33N 36°21' W 007°52'1111.4
2014-Jul-14 14:33N 36°19' W 007°38'1212.0
2014-Jul-14 13:33N 36°15' W 007°24'1212.0
2014-Jul-14 12:33N 36°12' W 007°10'  
Track history (hours):
 
Tides and Currents Weather Stations Pressure Air Temp Water Temp Dewpoint Dewpoint Depression Visibility Wind Speed Wind Dir Waves Ship Positions

Mt Bomar Mars

Last reported at 2014-Jul-23 04:29 UTC. Time now 2014-Jul-23 05:16 UTC.
Position N 51°57' E 004°11'.

Length 107 m; draft 6.3 m.

Type: Ship. MMSI: 256784000.

Date/timePositionNaut miles runAvg speedWind from/ knotsBaromVisibWave heightAir tempDewpointWater temp
2014-Jul-23 04:29N 51°57' E 004°11'0 0.0
2014-Jul-23 03:32N 51°57' E 004°11'0 0.0
2014-Jul-23 02:32N 51°57' E 004°11'0 0.0
2014-Jul-23 01:32N 51°57' E 004°11'0 0.0
2014-Jul-23 00:32N 51°57' E 004°11'0 0.0
2014-Jul-22 23:32N 51°57' E 004°11'0 0.0
2014-Jul-22 22:32N 51°57' E 004°11'0 0.0
2014-Jul-22 21:32N 51°57' E 004°11'0 0.0
2014-Jul-22 20:29N 51°57' E 004°11'0 0.0
2014-Jul-22 19:29N 51°57' E 004°11'0 0.0
2014-Jul-22 18:32N 51°57' E 004°11'0 0.0
2014-Jul-22 17:26N 51°57' E 004°11'0 0.0
2014-Jul-22 16:32N 51°57' E 004°11'0 0.0
2014-Jul-22 15:29N 51°57' E 004°11'0 0.0
2014-Jul-22 14:32N 51°57' E 004°11'0 0.0
2014-Jul-22 13:20N 51°57' E 004°11'0 0.0
2014-Jul-22 12:32N 51°57' E 004°11'0 0.0
2014-Jul-22 11:29N 51°57' E 004°11'0 0.0
2014-Jul-22 10:32N 51°57' E 004°11'0 0.0
2014-Jul-22 09:29N 51°57' E 004°11'0 0.0
2014-Jul-22 08:32N 51°57' E 004°11'0 0.0
2014-Jul-22 07:29N 51°57' E 004°11'0 0.0
2014-Jul-22 06:32N 51°57' E 004°11'0 0.0
2014-Jul-22 05:32N 51°57' E 004°11'0 0.0
2014-Jul-22 04:29N 51°57' E 004°11'0 0.0
2014-Jul-22 03:32N 51°57' E 004°11'0 0.0
2014-Jul-22 02:32N 51°57' E 004°11'0 0.0
2014-Jul-22 01:32N 51°57' E 004°11'0 0.0
2014-Jul-22 00:32N 51°57' E 004°11'0 0.0
2014-Jul-21 23:32N 51°57' E 004°11'0 0.0
2014-Jul-21 22:33N 51°57' E 004°11'2 1.9
2014-Jul-21 21:34N 51°58' E 004°09'7 6.8
2014-Jul-21 20:34N 51°54' E 004°17'2 7.0
2014-Jul-21 20:18N 51°54' E 004°20'1 1.2
2014-Jul-21 19:33N 51°54' E 004°22'0 0.0
2014-Jul-21 18:33N 51°54' E 004°22'0 0.0
2014-Jul-21 17:33N 51°54' E 004°22'0 0.0
2014-Jul-21 16:33N 51°54' E 004°22'0 0.0
2014-Jul-21 15:21N 51°54' E 004°22'0 0.0
2014-Jul-21 14:15N 51°54' E 004°22'0 0.0
2014-Jul-21 13:30N 51°54' E 004°22'0 0.0
2014-Jul-21 12:21N 51°54' E 004°22'0 0.0
2014-Jul-21 11:21N 51°54' E 004°22'0 0.0
2014-Jul-21 10:27N 51°54' E 004°22'0 0.0
2014-Jul-21 09:33N 51°54' E 004°22'0 0.0
2014-Jul-21 07:33N 51°54' E 004°22'0 0.0
2014-Jul-21 05:27N 51°54' E 004°22'0 0.0
2014-Jul-21 04:33N 51°54' E 004°22'0 0.0
2014-Jul-21 03:33N 51°54' E 004°22'0 0.0
2014-Jul-21 02:27N 51°54' E 004°22'0 0.0
2014-Jul-21 01:27N 51°54' E 004°22'0 0.0
2014-Jul-21 00:21N 51°54' E 004°22'1 1.7
2014-Jul-20 23:33N 51°54' E 004°20'10 9.9
2014-Jul-20 22:33N 51°59' E 004°06'1110.8
2014-Jul-20 21:33N 52°00' E 003°49'9 5.8
2014-Jul-20 20:04N 51°55' E 003°37'0 0.0
2014-Jul-20 13:31N 51°55' E 003°37'0 0.0
2014-Jul-20 08:04N 51°55' E 003°37'0 0.0
2014-Jul-20 07:22N 51°55' E 003°37'0 0.0
2014-Jul-20 06:31N 51°55' E 003°37'0 0.1
2014-Jul-20 05:28N 51°55' E 003°37'0 0.1
2014-Jul-20 04:31N 51°55' E 003°37'0 0.0
2014-Jul-20 03:28N 51°55' E 003°37'0 0.0
2014-Jul-20 02:16N 51°55' E 003°37'0 0.0
2014-Jul-20 01:28N 51°55' E 003°37'0 0.1
2014-Jul-19 23:31N 51°55' E 003°37'0 0.0
2014-Jul-19 22:25N 51°55' E 003°37'0 0.0
2014-Jul-19 20:16N 51°55' E 003°37'0 0.0
2014-Jul-19 18:22N 51°55' E 003°37'0 0.0
2014-Jul-19 17:31N 51°55' E 003°37'0 0.1
2014-Jul-19 16:25N 51°55' E 003°37'0 0.0
2014-Jul-19 15:28N 51°55' E 003°37'0 0.0
2014-Jul-19 12:13N 51°55' E 003°37'0 0.0
2014-Jul-19 10:33N 51°55' E 003°37'12 9.0
2014-Jul-19 09:11N 51°53' E 003°17'911.3
2014-Jul-19 08:26N 51°51' E 003°04'2611.7
2014-Jul-19 06:14N 51°39' E 002°28'912.6
2014-Jul-19 05:33N 51°32' E 002°19'1312.0
2014-Jul-19 04:28N 51°21' E 002°07'1111.6
2014-Jul-19 03:33N 51°12' E 001°59'1212.2
2014-Jul-19 02:33N 51°05' E 001°43'1111.2
2014-Jul-19 01:33N 50°56' E 001°31'10 9.6
2014-Jul-19 00:33N 50°48' E 001°25'9 9.2
2014-Jul-18 23:33N 50°40' E 001°19'9 9.5
2014-Jul-18 22:33N 50°33' E 001°07'9 9.2
2014-Jul-18 21:33N 50°28' E 000°56'9 9.4
2014-Jul-18 20:33N 50°25' E 000°42'10 9.5
2014-Jul-18 19:33N 50°23' E 000°27'12 9.8
2014-Jul-18 18:22N 50°20' E 000°09'810.1
2014-Jul-18 17:33N 50°18' W 000°03'1210.3
2014-Jul-18 16:21N 50°14' W 000°22'1311.2
2014-Jul-18 15:08N 50°11' W 000°42'5714.1
2014-Jul-18 11:06N 49°56' W 002°07'2512.8
2014-Jul-18 09:11N 49°49' W 002°44'811.7
2014-Jul-18 08:29N 49°47' W 002°56'3410.6
2014-Jul-18 05:16N 49°30' W 003°42'  
2014-Jul-15 17:11N 39°60' W 009°57'710.7
2014-Jul-15 16:33N 39°53' W 009°57'6810.8
2014-Jul-15 10:17N 38°46' W 009°57'4210.6
2014-Jul-15 06:19N 38°05' W 009°45'1210.4
2014-Jul-15 05:09N 37°53' W 009°42'610.6
2014-Jul-15 04:33N 37°47' W 009°40'1110.6
2014-Jul-15 03:33N 37°36' W 009°37'1110.5
2014-Jul-15 02:32N 37°26' W 009°34'1010.0
2014-Jul-15 01:33N 37°16' W 009°32'1010.1
2014-Jul-15 00:32N 37°06' W 009°29'1110.6
2014-Jul-14 23:30N 36°56' W 009°26'1010.3
2014-Jul-14 22:33N 36°47' W 009°20'1510.3
2014-Jul-14 21:06N 36°39' W 009°04'610.9
2014-Jul-14 20:33N 36°37' W 008°57'1110.9
2014-Jul-14 19:33N 36°34' W 008°44'1110.8
2014-Jul-14 18:33N 36°31' W 008°31'1110.9
2014-Jul-14 17:33N 36°28' W 008°18'1111.0
2014-Jul-14 16:33N 36°25' W 008°05'1111.0
2014-Jul-14 15:33N 36°21' W 007°52'1111.4
2014-Jul-14 14:33N 36°19' W 007°38'1212.0
2014-Jul-14 13:33N 36°15' W 007°24'1212.0
2014-Jul-14 12:33N 36°12' W 007°10'  

Dump ship's entire track history